• In Belarus
  • List of Countries
  • For 7 days
  • Water Temperature
  • Weather Map
  • Weather Widgets
  • user-avatar
    Login

    Hourly Weather Wlora

    Today, 13 November, Wednesday

    Time Temperature Precipitation Wind Pressure Humidity
    00:00 +14°C° 1 mm 12 mps 752 mmHg 87%
    01:00 +14°C° 1 mm 13 mps 752 mmHg 86%
    02:00 +14°C° 0.3 mm 14 mps 752 mmHg 84%
    03:00 +15°C° 0.3 mm 15 mps 752 mmHg 82%
    04:00 +15°C° 0.3 mm 16 mps 751 mmHg 79%
    05:00 +15°C° 0.6 mm 16 mps 752 mmHg 81%
    06:00 +15°C° 0.6 mm 16 mps 752 mmHg 83%
    07:00 +15°C° 0.6 mm 15 mps 752 mmHg 85%
    08:00 +17°C° 0.4 mm 15 mps 753 mmHg 83%
    09:00 +17°C° 0.4 mm 15 mps 753 mmHg 81%
    10:00 +18°C° 0.4 mm 14 mps 754 mmHg 79%
    11:00 +18°C° 0.5 mm 14 mps 754 mmHg 78%
    12:00 +18°C° 0.5 mm 13 mps 754 mmHg 78%
    13:00 +18°C° 0.5 mm 12 mps 754 mmHg 77%
    14:00 +18°C° 0.6 mm 11 mps 754 mmHg 78%
    15:00 +17°C° 0.6 mm 10 mps 754 mmHg 79%
    16:00 +17°C° 0.6 mm 9 mps 754 mmHg 80%
    17:00 +16°C° 0.5 mm 9 mps 755 mmHg 81%
    18:00 +16°C° 0.5 mm 9 mps 755 mmHg 82%
    19:00 +16°C° 0.5 mm 9 mps 756 mmHg 84%
    20:00 +16°C° 0.4 mm 8 mps 756 mmHg 84%
    21:00 +16°C° 0.4 mm 8 mps 756 mmHg 84%
    22:00 +16°C° 0.4 mm 7 mps 756 mmHg 84%
    23:00 +15°C° 0.2 mm 7 mps 756 mmHg 84%

    Tomorrow, 14 November, Thursday

    Time Temperature Precipitation Wind Pressure Humidity
    00:00 +15°C° 0.2 mm 6 mps 756 mmHg 83%
    01:00 +15°C° 0.2 mm 6 mps 756 mmHg 83%
    02:00 +15°C° 0.3 mm 5 mps 756 mmHg 83%
    03:00 +15°C° 0.3 mm 5 mps 756 mmHg 84%
    04:00 +15°C° 0.3 mm 4 mps 756 mmHg 84%
    05:00 +15°C° 0.2 mm 5 mps 757 mmHg 83%
    06:00 +15°C° 0.2 mm 5 mps 757 mmHg 83%
    07:00 +15°C° 0.2 mm 6 mps 757 mmHg 82%
    08:00 +16°C° 0.1 mm 6 mps 757 mmHg 77%
    09:00 +17°C° 0.1 mm 6 mps 757 mmHg 72%
    10:00 +19°C° 0.1 mm 6 mps 757 mmHg 68%
    11:00 +19°C° 0 mm 6 mps 757 mmHg 67%
    12:00 +18°C° 0 mm 7 mps 757 mmHg 66%
    13:00 +18°C° 0 mm 7 mps 757 mmHg 65%
    14:00 +18°C° 0 mm 7 mps 757 mmHg 67%
    15:00 +17°C° 0 mm 7 mps 757 mmHg 70%
    16:00 +17°C° 0 mm 7 mps 757 mmHg 73%
    17:00 +16°C° 0.1 mm 7 mps 757 mmHg 73%
    18:00 +16°C° 0.1 mm 7 mps 758 mmHg 74%
    19:00 +15°C° 0.1 mm 7 mps 758 mmHg 75%
    20:00 +15°C° 0 mm 8 mps 758 mmHg 75%
    21:00 +15°C° 0 mm 8 mps 758 mmHg 75%
    22:00 +15°C° 0 mm 8 mps 759 mmHg 74%
    23:00 +15°C° 0 mm 9 mps 759 mmHg 74%

    Day after tomorrow, 15 November, Friday

    Time Temperature Precipitation Wind Pressure Humidity
    00:00 +15°C° 0 mm 9 mps 759 mmHg 73%
    01:00 +13°C° 0 mm 9 mps 759 mmHg 73%
    02:00 +13°C° 0 mm 9 mps 759 mmHg 73%
    03:00 +13°C° 0 mm 9 mps 759 mmHg 73%
    04:00 +13°C° 0 mm 10 mps 759 mmHg 73%
    05:00 +13°C° 0 mm 10 mps 759 mmHg 74%
    06:00 +13°C° 0 mm 10 mps 759 mmHg 74%
    07:00 +14°C° 0 mm 10 mps 760 mmHg 75%
    08:00 +16°C° 0 mm 10 mps 760 mmHg 71%
    09:00 +17°C° 0 mm 10 mps 760 mmHg 68%
    10:00 +19°C° 0 mm 10 mps 760 mmHg 65%
    11:00 +19°C° 0.1 mm 10 mps 760 mmHg 68%
    12:00 +19°C° 0.1 mm 10 mps 760 mmHg 71%
    13:00 +19°C° 0.1 mm 10 mps 760 mmHg 74%
    14:00 +19°C° 0 mm 10 mps 760 mmHg 76%
    15:00 +18°C° 0 mm 10 mps 760 mmHg 78%
    16:00 +18°C° 0 mm 9 mps 760 mmHg 79%
    17:00 +17°C° 0 mm 9 mps 761 mmHg 81%
    18:00 +17°C° 0 mm 9 mps 761 mmHg 83%
    19:00 +16°C° 0 mm 9 mps 762 mmHg 84%
    20:00 +16°C° 0 mm 9 mps 762 mmHg 84%
    21:00 +16°C° 0 mm 9 mps 762 mmHg 85%
    22:00 +16°C° 0 mm 9 mps 763 mmHg 85%
    23:00 +16°C° 0 mm 9 mps 763 mmHg 83%

    16 November, Saturday

    Time Temperature Precipitation Wind Pressure Humidity
    00:00 +15°C° 0 mm 9 mps 763 mmHg 81%
    01:00 +15°C° 0 mm 9 mps 763 mmHg 79%
    02:00 +15°C° 0.1 mm 9 mps 763 mmHg 78%
    03:00 +15°C° 0.1 mm 8 mps 763 mmHg 76%
    04:00 +15°C° 0.1 mm 8 mps 762 mmHg 74%
    05:00 +15°C° 0.1 mm 8 mps 762 mmHg 74%
    06:00 +15°C° 0.1 mm 8 mps 762 mmHg 74%
    07:00 +15°C° 0.1 mm 7 mps 763 mmHg 74%
    08:00 +16°C° 0 mm 7 mps 763 mmHg 71%
    09:00 +17°C° 0 mm 8 mps 763 mmHg 68%
    10:00 +18°C° 0 mm 8 mps 763 mmHg 66%
    11:00 +20°C° 0 mm 7 mps 762 mmHg 65%
    12:00 +20°C° 0 mm 7 mps 762 mmHg 64%
    13:00 +21°C° 0 mm 7 mps 761 mmHg 63%
    14:00 +20°C° 0 mm 7 mps 761 mmHg 67%
    15:00 +18°C° 0 mm 7 mps 761 mmHg 71%
    16:00 +18°C° 0 mm 7 mps 760 mmHg 75%
    17:00 +17°C° 0 mm 7 mps 760 mmHg 77%
    18:00 +17°C° 0 mm 7 mps 760 mmHg 79%
    19:00 +16°C° 0 mm 7 mps 760 mmHg 80%
    20:00 +16°C° 0 mm 8 mps 760 mmHg 78%
    21:00 +16°C° 0 mm 8 mps 760 mmHg 75%
    22:00 +15°C° 0 mm 8 mps 760 mmHg 73%
    23:00 +15°C° 0 mm 9 mps 760 mmHg 71%

    17 November, Sunday

    Time Temperature Precipitation Wind Pressure Humidity
    00:00 +15°C° 0 mm 9 mps 760 mmHg 68%
    01:00 +13°C° 0 mm 9 mps 759 mmHg 66%
    02:00 +13°C° 0 mm 9 mps 759 mmHg 66%
    03:00 +13°C° 0 mm 10 mps 759 mmHg 66%
    04:00 +13°C° 0 mm 10 mps 758 mmHg 65%
    05:00 +13°C° 0 mm 10 mps 758 mmHg 66%
    06:00 +13°C° 0 mm 11 mps 758 mmHg 67%
    07:00 +13°C° 0 mm 11 mps 758 mmHg 68%
    08:00 +15°C° 0.1 mm 12 mps 758 mmHg 65%
    09:00 +17°C° 0.1 mm 12 mps 758 mmHg 62%
    10:00 +19°C° 0.1 mm 12 mps 759 mmHg 59%
    11:00 +19°C° 0.1 mm 12 mps 758 mmHg 58%
    12:00 +21°C° 0.1 mm 12 mps 758 mmHg 58%
    13:00 +20°C° 0.1 mm 13 mps 758 mmHg 57%
    14:00 +21°C° 0.2 mm 12 mps 758 mmHg 60%
    15:00 +19°C° 0.2 mm 12 mps 758 mmHg 63%
    16:00 +18°C° 0.2 mm 12 mps 757 mmHg 66%
    17:00 +18°C° 0.6 mm 12 mps 758 mmHg 66%
    18:00 +17°C° 0.6 mm 12 mps 758 mmHg 66%
    19:00 +17°C° 0.6 mm 12 mps 758 mmHg 67%
    20:00 +16°C° 6.2 mm 9 mps 758 mmHg 72%
    21:00 +16°C° 6.2 mm 6 mps 758 mmHg 77%
    22:00 +16°C° 6.2 mm 3 mps 759 mmHg 82%
    23:00 +16°C° 3.1 mm 3 mps 759 mmHg 85%

    18 November, Monday

    Time Temperature Precipitation Wind Pressure Humidity
    00:00 +16°C° 3.1 mm 3 mps 760 mmHg 88%
    01:00 +14°C° 3.1 mm 3 mps 760 mmHg 91%
    02:00 +15°C° 0.1 mm 2 mps 760 mmHg 90%
    03:00 +15°C° 0.1 mm 2 mps 760 mmHg 88%
    04:00 +14°C° 0.1 mm 2 mps 760 mmHg 86%
    05:00 +14°C° 0 mm 1 mps 760 mmHg 85%
    06:00 +14°C° 0 mm 1 mps 761 mmHg 83%
    07:00 +15°C° 0 mm 1 mps 761 mmHg 81%
    08:00 +16°C° 0 mm 1 mps 761 mmHg 77%
    09:00 +18°C° 0 mm 1 mps 761 mmHg 72%
    10:00 +19°C° 0 mm 1 mps 762 mmHg 67%
    11:00 +18°C° 0 mm 2 mps 761 mmHg 66%
    12:00 +19°C° 0 mm 2 mps 761 mmHg 65%
    13:00 +19°C° 0 mm 3 mps 761 mmHg 64%
    14:00 +18°C° 0 mm 3 mps 761 mmHg 68%
    15:00 +18°C° 0 mm 3 mps 761 mmHg 72%
    16:00 +17°C° 0 mm 2 mps 761 mmHg 77%
    17:00 +16°C° 0 mm 2 mps 761 mmHg 79%
    18:00 +16°C° 0 mm 2 mps 761 mmHg 81%
    19:00 +15°C° 0 mm 2 mps 761 mmHg 83%
    20:00 +15°C° 0 mm 1 mps 761 mmHg 82%
    21:00 +15°C° 0 mm 1 mps 761 mmHg 82%
    22:00 +15°C° 0 mm 1 mps 761 mmHg 82%
    23:00 +15°C° 0 mm 1 mps 761 mmHg 82%
    Show more